Regional Weather Roundup
Issued by NWS

Home | Current Version | Previous Version | Graphics & Text | Print | Product List | Glossary On
Versions: 1 2 3 4 5 6 7 8 9 10 11 12 13 14 15 16 17 18 19 20 21 22 23 24 25 26 27 28 29 30 31 32 33 34 35 36 37 38 39 40 41 42 43 44 45 46 47 48 49 50
000
ASUS45 KSLC 241310
RWRUT

UTAH REGIONAL WEATHER ROUNDUP
NATIONAL WEATHER SERVICE SALT LAKE CITY UT
700 AM MDT SUN MAY 24 2015

UTZ001>011-023>025-241400-

NORTHERN UTAH

CITY           SKY/WX    TMP DP  RH WIND       PRES   REMARKS
BRIGHAM CITY   CLEAR     47  44  88 CALM      29.96S
HILL AFB       PTCLDY    46  43  90 E10       29.96S
LOGAN          CLOUDY    47  44  90 CALM      29.96S
OGDEN          PTCLDY    46  42  86 SE6       29.95S
PROVO AIRPORT  MOCLDY    46  39  76 CALM      29.97S
SALT LAKE CITY MOCLDY    48  43  82 SE7       29.96R
VERNAL         CLOUDY    46  39  76 CALM      29.95R
WENDOVER       CLOUDY    52  48  87 W3        29.96S
HEBER CITY     PTCLDY    36  34  93 CALM      29.99S
WEST JORDAN    CLOUDY    45  43  93 CALM      29.97S

$$

UTZ012>022-026-027-241400-

SOUTHERN/CENTRAL UTAH

CITY           SKY/WX    TMP DP  RH WIND       PRES   REMARKS
BLANDING       CLOUDY    43  42  96 CALM      30.07R
BRYCE CANYON   CLOUDY    41  38  89 NE3       30.03R
CEDAR CITY     CLOUDY    45  43  93 CALM      29.98R
DELTA          PTCLDY    40  40  98 CALM      29.98S
HANKSVILLE     PTCLDY    43  41  93 CALM      29.98S
MILFORD        CLOUDY    48  45  89 CALM      29.97R
MOAB/CYNLANDS  CLEAR     47  43  86 CALM      29.94S
PRICE          PTCLDY    43  35  73 N5        29.97S
ST GEORGE      CLOUDY    57  52  82 SW6       29.95R
KANAB          MOCLDY    48  48 100 CALM      30.02R

$$

REGIONAL REPORTS     COLORADO/ARIZONA

CITY           SKY/WX    TMP DP  RH WIND       PRES   REMARKS
CRAIG, CO      CLOUDY    41  37  86 CALM      29.96S
GRAND JUNCTION PTSUNNY   45  43  93 E3        29.96S
RIFLE          CLOUDY    45  41  86 CALM      29.98R
MONTROSE       CLOUDY    41  38  89 SE7       30.01S
CORTEZ         CLOUDY    42  40  92 NE5       30.00S
PAGE, AZ       CLOUDY    52  50  93 SE3       29.96S
GRAND CANYON   CLOUDY    43  37  79 SW5       30.04R
KINGMAN        MOCLDY    54  37  52 S6        29.94R
FLAGSTAFF      CLOUDY    36  33  89 W5        30.05R WCI  32

$$

REGIONAL REPORTS    NEVADA/IDAHO/WYOMING

CITY           SKY/WX    TMP DP  RH WIND       PRES   REMARKS
LAS VEGAS, NV  MOCLDY    68  44  42 S9        29.84R
ELY            CLOUDY    45  42  89 MISG      30.03R
ELKO           CLOUDY    48  46  93 S5        30.02R
POCATELLO, ID  FOG       47  47 100 SW6       29.99R VSB 3/4
BURLEY         CLOUDY    47  46  97 S5        29.97F FOG
EVANSTON, WY   PTCLDY    37  35  92 SW5       30.00R WCI  33
ROCK SPRINGS   RAIN      38  36  92 NE8       29.98R FOG     WCI  32
KEMMERER       MOSUNNY   36  34  93 NW6       30.00S WCI  31

$$



USA.gov is the U.S. government's official web portal to all federal, state and local government web resources and services.